Location: Doverdale
(52.2833°N, 2.2000°W)
Time: 03:42:14
(UTC+00:00)

Cosmos 1812 Rocket - Pass Details

Date: 29 October 2020
Orbit: 605 x 633 km, 82.5° (Epoch: 27 November)

Event Time Altitude Azimuth Distance (km) Brightness Sun altitude
Rises 18:59:18 0° 187° (S) 2,889 7.0 -21.1°
Reaches altitude 10° 19:01:31 10° 187° (S) 1,983 6.2 -21.4°
Maximum altitude 19:05:55 85° 99° (E) 626 3.4 -22.1°
Drops below altitude 10° 19:10:19 10° 12° (NNE) 1,982 6.1 -22.7°
Sets 19:12:32 0° 12° (NNE) 2,888 7.0 -23.1°
